Weather History for Dayton, OH

Change the Weather History Date:

Wednesday, January 15, 2014

  Actual Average Record
Temperature  
Mean Temperature 24 °F 27 °F  
Max Temperature 31 °F 34 °F 65 °F (1932)
Min Temperature 17 °F 20 °F -12 °F (1972)
Degree Days  
Heating Degree Days 41 38  
Month to date heating degree days 581 564  
Since 1 July heating degree days 2700 2723  
Cooling Degree Days 0 0  
Month to date cooling degree days 0 0  
Year to date cooling degree days 0 0  
Moisture  
Dew Point 16 °F    
Average Humidity 71    
Maximum Humidity 84    
Minimum Humidity 58    
Precipitation  
Precipitation T in 0.09 in 1.23 in (1950)
Month to date precipitation 1.96 1.41  
Year to date precipitation 1.96 1.41  
Snow  
Snow T in 0.20 in 6.20 in (1929)
Month to date snowfall 8.1 3.7  
Since 1 July snowfall 22.7 9.2  
Snow Depth 0.00 in    
Sea Level Pressure  
Sea Level Pressure 30.04 in    
Wind  
Wind Speed 12 mph (West)    
Max Wind Speed 30 mph    
Max Gust Speed 35 mph    
Visibility 8 miles    
Events Snow    
T = Trace of Precipitation, MM = Missing Value Source: NWS Daily Summary

Daily Weather History Graph

Daily Weather History Graph

Search for Another Location

Airport:

Trip Planner

Search our weather history database for the weather conditions in past years. The results will help you decide how hot, cold, wet, or windy it might be!

Date:

Astronomy

Jan. 15, 2014 Rise Set
Actual Time 7:56 AM EST 5:36 PM EST
Civil Twilight 7:26 AM EST 6:06 PM EST
Nautical Twilight 6:53 AM EST 6:39 PM EST
Astronomical Twilight 6:21 AM EST 7:11 PM EST
Moon 5:33 PM EST (1/15) 7:12 AM EST (1/15)
Length of Visible Light 10h 39m
Length of Day
9h 39m
Full, 100% of the Moon is Illuminated
Jan 15
Full
Jan 15
Full
Jan 24
Last Quarter
Jan 30
New
Feb 6
First Quarter

Hourly Weather History & Observations

Time (EST) Temp. Windchill Dew Point Humidity Pressure Visibility Wind Dir Wind Speed Gust Speed Precip Events Conditions
12:56 AM 28.9 °F 16.1 °F 16.0 °F 58% 29.92 in 10.0 mi West 19.6 mph 27.6 mph N/A   Overcast
1:56 AM 28.0 °F 15.3 °F 17.1 °F 63% 29.92 in 10.0 mi West 18.4 mph 23.0 mph N/A   Overcast
2:56 AM 27.0 °F 16.1 °F 18.0 °F 69% 29.93 in 10.0 mi WSW 12.7 mph - N/A   Scattered Clouds
3:56 AM 28.0 °F 17.5 °F 18.0 °F 66% 29.94 in 10.0 mi WSW 12.7 mph - N/A   Mostly Cloudy
4:56 AM 28.0 °F 16.5 °F 19.0 °F 69% 29.95 in 10.0 mi West 15.0 mph - N/A   Overcast
5:56 AM 27.0 °F 15.2 °F 19.0 °F 72% 29.96 in 10.0 mi West 15.0 mph 23.0 mph 0.00 in   Overcast
6:56 AM 27.0 °F 14.7 °F 18.0 °F 69% 29.98 in 9.0 mi West 16.1 mph - 0.00 in   Overcast
7:56 AM 26.1 °F 14.5 °F 15.1 °F 63% 30.01 in 10.0 mi WNW 13.8 mph - 0.00 in   Overcast
8:56 AM 25.0 °F 15.5 °F 15.1 °F 66% 30.04 in 10.0 mi West 9.2 mph - N/A   Overcast
9:56 AM 25.0 °F 14.8 °F 17.1 °F 72% 30.07 in 4.0 mi West 10.4 mph - 0.00 in Snow Light Snow
10:11 AM 24.8 °F 12.9 °F 17.6 °F 74% 30.04 in 2.0 mi West 13.8 mph - 0.00 in Snow Light Snow
10:25 AM 24.8 °F 13.4 °F 17.6 °F 74% 30.04 in 7.0 mi West 12.7 mph - 0.00 in Snow Light Snow
10:56 AM 26.1 °F 16.2 °F 17.1 °F 69% 30.08 in 10.0 mi West 10.4 mph - 0.00 in   Overcast
11:56 AM 27.0 °F 16.1 °F 14.0 °F 58% 30.07 in 10.0 mi West 12.7 mph - 0.00 in Snow Light Snow
12:56 PM 25.0 °F 13.1 °F 16.0 °F 69% 30.06 in 2.5 mi West 13.8 mph - 0.00 in Snow Light Snow
1:13 PM 26.6 °F 16.8 °F 17.6 °F 69% 30.02 in 7.0 mi West 10.4 mph - 0.00 in Snow Light Snow
1:56 PM 25.0 °F 13.1 °F 15.1 °F 66% 30.05 in 10.0 mi West 13.8 mph - 0.00 in   Overcast
2:56 PM 26.1 °F 15.0 °F 15.1 °F 63% 30.05 in 10.0 mi WNW 12.7 mph - N/A   Overcast
3:56 PM 25.0 °F 13.6 °F 16.0 °F 69% 30.07 in 10.0 mi West 12.7 mph - 0.00 in   Overcast
4:56 PM 25.0 °F 14.8 °F 15.1 °F 66% 30.08 in 10.0 mi West 10.4 mph - 0.00 in   Overcast
5:56 PM 24.1 °F 13.1 °F 15.1 °F 69% 30.09 in 10.0 mi West 11.5 mph - 0.00 in   Overcast
6:56 PM 24.1 °F 13.1 °F 14.0 °F 65% 30.11 in 9.0 mi West 11.5 mph - 0.00 in Snow Light Snow
7:56 PM 23.0 °F 13.9 °F 17.1 °F 78% 30.10 in 7.0 mi West 8.1 mph - 0.00 in Snow Light Snow
8:13 PM 21.2 °F 13.6 °F 17.6 °F 86% 30.06 in 6.0 mi West 5.8 mph - 0.00 in Snow Light Snow
8:56 PM 19.9 °F 11.1 °F 15.1 °F 81% 30.11 in 10.0 mi West 6.9 mph - 0.00 in   Scattered Clouds
9:56 PM 18.0 °F 9.8 °F 12.9 °F 81% 30.10 in 10.0 mi WSW 5.8 mph - N/A   Clear
10:56 PM 19.0 °F 10.0 °F 15.1 °F 85% 30.09 in 9.0 mi SW 6.9 mph - N/A   Clear
11:56 PM 17.1 °F 7.6 °F 12.9 °F 84% 30.08 in 8.0 mi WSW 6.9 mph - N/A   Partly Cloudy